Find Starlink 36112

NORAD ID: 66944 Int'l Des: 2025-286 Owner: SPXS Country: US Constellation: starlink operational
LEOCIRCULAR

リアルタイム位置

3D地球を読み込み中...

Starlink 36112について

説明を読み込み中...

次回通過

Passes for default location (London). Set your location on the main map for personalized predictions.

高度履歴

Loading altitude history...

軌道要素

1 66944U 25286V 26107.22518117 .00009413 00000-0 32943-3 0 9996
2 66944 53.1575 179.6728 0001065 84.3506 275.7616 15.30208745 21311
Epoch: Apr 17, 2026 • Age: 10 hours

現在のステータス

高度 481.5 km
速度 7.62 km/s
衛星直下点 -21.35°S, 66.81°W
打ち上げ日 Dec 7, 2025
運用期間 0.3 years
タイプ internet

技術仕様

分類 Payload
質量 575.00 kg
乾燥質量 530.00 kg
総質量 575.00 kg
長さ 0.30 m
直径 4.10 m
スパン 29.00 m
形状 Box + pan
製造者 SPXS
バスタイプ Starlink V2MO
フェーズステータス In Orbit
所有者/国 SPXS/US

Most Searched